Content
SEND FEEDBACK

Daily
Averages
Monthly
Summary
United States of America

ST. LOUIS - SAINT LOUIS UNIVERSITY, MISSOURI


Home > North America > United States > Missouri
Elevation: 580 feet     Latitude: 38 38N     Longitude: 090 14W

WEATHER
 
SELECT A DAY
Number of Records: 189,817;   Date Range: 1/1/95 - 11/19/14
 
SHARE

PRINT THIS DATA

[ ← Previous Day ]
WEATHER ALMANAC - MAY 25, 2013
[ Next Day → ]
[ °C ]   °F
Weather ElementAverageHighLow
Temperature61 °F70 °F (5:53 pm)46 °F (4:53 am)
Dewpoint50.4 °F55.9 °F (2:53 pm)43 °F (1:53 am)
Humidity69.6 %89 % (4:53 am)47 % (10:53 am)
Barometer30.25 in30.35 in (7:53 am)30.13 in (6:53 pm)
Wind Speed5.4 mph12.7 mph (10:53 am)
Weather ElementAverage
Visibility9.7 mi
Wind DirectionESE (102.6 °)

Weather ElementTotal
Precipitation0.13 in
Heating Degree Days7 (Base 65)
Growing Degree Days8 (Base 50)
Averaged from 27 records on May 25, 2013
WEATHER CONDITIONS BREAKOUT
WIND DIRECTION BREAKOUT
WEATHER BY HOUR - MAY 25, 2013
[ °C ]   °F
Local TimeTemperatureDewpointHumidityBarometerVisibilityWind DirectionWind SpeedGust SpeedPrecipitationEventsConditions
1:53 AM51.1 °F43.0 °F74 %30.27 in10.0 miSE (130°)3.5 mphClear
2:53 AM50.0 °F43.0 °F77 %30.27 in10.0 miCalmClear
3:53 AM46.9 °F43.0 °F86 %30.27 in10.0 miCalmClear
4:53 AM46.0 °F43.0 °F89 %30.27 in10.0 miCalmClear
5:53 AM48.0 °F45.0 °F89 %30.31 in10.0 miCalmClear
6:53 AM52.0 °F48.0 °F86 %30.34 in10.0 miNorth (360°)3.5 mphScattered Clouds
7:53 AM54.0 °F48.9 °F83 %30.35 in10.0 miEast (90°)4.6 mphMostly Cloudy
8:53 AM63.0 °F48.0 °F58 %30.32 in10.0 miSSE (150°)6.9 mphClear
9:53 AM66.0 °F46.9 °F50 %30.31 in10.0 miSSE (160°)9.2 mphMostly Cloudy
10:53 AM66.9 °F46.0 °F47 %30.30 in10.0 miSE (140°)12.7 mphPartly Cloudy
11:53 AM66.9 °F46.9 °F49 %30.31 in10.0 miSE (130°)8.1 mphClear
12:53 PM68.0 °F48.0 °F49 %30.30 in10.0 miESE (110°)8.1 mphMostly Cloudy
1:53 PM63.0 °F53.1 °F70 %30.29 in5.0 miEast (90°)8.1 mph0.03 inRain-ThunderstormRain
2:09 PM62.6 °F53.6 °F72 %30.30 in10.0 miNNE (20°)4.6 mph0.01 inRainLight Rain
2:18 PM60.8 °F53.6 °F77 %30.29 in10.0 miNE (50°)6.9 mph0.01 inRain-ThunderstormLight Thunderstorms and Rain
2:41 PM60.8 °F55.4 °F82 %30.27 in9.0 miEast (90°)5.8 mph0.04 inRain-ThunderstormLight Rain
2:53 PM61.0 °F55.9 °F83 %30.27 in9.0 miEast (100°)5.8 mph0.04 inRain-ThunderstormLight Rain
3:02 PM60.8 °F55.4 °F82 %30.26 in10.0 miEast (100°)6.9 mph0.00 inRainLight Rain
3:53 PM66.0 °F55.0 °F68 %30.20 in10.0 miSE (140°)12.7 mph0.00 inClear
4:53 PM69.1 °F54.0 °F58 %30.18 in10.0 miSE (140°)6.9 mphClear
5:53 PM70.0 °F52.0 °F53 %30.17 in10.0 miSouth (170°)6.9 mphClear
6:53 PM69.1 °F53.1 °F57 %30.13 in10.0 miSSE (160°)3.5 mphClear
7:53 PM66.0 °F55.0 °F68 %30.14 in10.0 miESE (110°)4.6 mphOvercast
8:53 PM66.0 °F55.0 °F68 %30.14 in10.0 miEast (90°)3.5 mphOvercast
9:53 PM66.0 °F54.0 °F65 %30.17 in10.0 miEast (100°)4.6 mph0.00 inOvercast
10:53 PM64.9 °F53.1 °F65 %30.19 in10.0 miEast (90°)4.6 mphOvercast
11:53 PM61.0 °F53.1 °F75 %30.19 in10.0 miNE (50°)4.6 mphScattered Clouds
Hourly data recorded from KCPS, located miles away from St. Louis - Saint Louis University, Missouri







STORIES FROM OUR PARTNERS